Tracking 23099 objects as of 13-May-2021
HD Live streaming from Space Station
objects crossing your sky now

GSAT 1

Track GSAT 1 now!
GSAT 1 is classified as:


NORAD ID: 26745
Int'l Code: 2001-015A
Perigee: 33,866.8 km
Apogee: 35,786.5 km
Inclination: 12.1 °
Period: 1,387.0 minutes
Semi major axis: 41197 km
RCS: 3.1622 m2 (large)
Launch date: April 18, 2001
Source: India (IND)
Launch site: SRIHARIKOTA (SRI)
aabbcc
Your satellite tracking list
Your tracking list is empty




NASA's NSSDC Master Catalog

Two Line Element Set (TLE):
1 26745U 01015A   21133.17585476 -.00000241  00000-0  00000+0 0  9991
2 26745  12.0997  17.9149 0232987 246.9459 282.3608  1.03823118 76194
Source of the keplerian elements: AFSPC